This demonstration page uses our WeatherBlox Daily Observations layout. Learn more.

Left ArrowRight Arrow

44.8408, -93.29828

Hourly Observations for March 7, 2015

Temp ( °F °C ) Dew Point ( °F °C ) Humidity (%) Winds ( mph kmh ) Pressure ( in mb ) Visibility ( mi km ) Precip ( " mm )
12:53 am 00:53 Cloudy 28 -2.2 19 -7.2 69 69 SSW 3 6 30.02 1017 10 16 0.00 0.00
1:53 am 01:53 Cloudy 28 -2.2 20 -6.7 72 72 Calm 30.00 1016 10 16 0.00 0.00
2:53 am 02:53 Mostly Cloudy 28 -2.2 19 -7.2 69 69 SSW 3 6 29.97 1015 10 16 0.00 0.00
3:53 am 03:53 Mostly Cloudy 29 -1.7 19 -7.2 66 66 SW 8 13 29.96 1014 10 16 0.00 0.00
4:53 am 04:53 Mostly Cloudy 30 -1.1 21 -6.1 69 69 WSW 10 17 29.96 1015 10 16 0.00 0.00
5:53 am 05:53 Cloudy 33 0.6 24 -4.4 70 70 W 10 17 29.97 1015 10 16 0.00 0.00
6:53 am 06:53 Mostly Sunny 33 0.6 26 -3.3 75 75 WNW 12 19 29.99 1016 10 16 0.00 0.00
7:53 am 07:53 Sunny 35 1.7 27 -2.8 72 72 NW 17 28 30.03 1017 10 16 0.00 0.00
8:53 am 08:53 Mostly Sunny 37 2.8 27 -2.8 67 67 NNW 14 22 30.06 1018 10 16 0.00 0.00
9:53 am 09:53 Sunny 39 3.9 24 -4.4 55 55 NW 14 22 30.09 1019 10 16 0.00 0.00
10:53 am 10:53 Sunny 42 5.6 22 -5.6 45 45 NW 16 26 30.10 1019 10 16 0.00 0.00
11:53 am 11:53 Sunny 43 6.1 21 -6.1 42 42 WNW 17 28 30.11 1020 10 16 0.00 0.00
12:53 pm 12:53 Mostly Sunny 43 6.1 20 -6.7 40 40 NW 18 30 30.11 1020 10 16 0.00 0.00
1:53 pm 13:53 Partly Cloudy 42 5.6 19 -7.2 40 40 WNW 26 43 30.11 1020 10 16 0.00 0.00
2:53 pm 14:53 Partly Cloudy 42 5.6 20 -6.7 41 41 NW 20 31 30.11 1020 10 16 0.00 0.00
3:53 pm 15:53 Partly Cloudy 41 5 19 -7.2 41 41 W 18 30 30.11 1020 10 16 0.00 0.00
4:53 pm 16:53 Partly Cloudy 39 3.9 20 -6.7 46 46 WNW 15 24 30.13 1020 10 16 0.00 0.00
5:53 pm 17:53 Mostly Sunny 37 2.8 20 -6.7 50 50 WNW 20 31 30.13 1020 10 16 0.00 0.00
6:53 pm 18:53 Partly Cloudy 35 1.7 21 -6.1 57 57 W 13 20 30.15 1021 10 16 0.00 0.00
7:53 pm 19:53 Mostly Cloudy 34 1.1 21 -6.1 59 59 WNW 13 20 30.16 1021 10 16 0.00 0.00
8:53 pm 20:53 Mostly Cloudy 33 0.6 22 -5.6 64 64 WNW 12 19 30.16 1021 10 16 0.00 0.00
9:53 pm 21:53 Mostly Cloudy 33 0.6 22 -5.6 64 64 NW 6 9 30.16 1021 10 16 0.00 0.00
10:53 pm 22:53 Mostly Cloudy 32 0 22 -5.6 66 66 Calm 30.15 1021 10 16 0.00 0.00
11:53 pm 23:53 Mostly Cloudy 31 -0.6 22 -5.6 69 69 SW 6 9 30.15 1021 10 16 0.00 0.00

Powered by AerisWeather